| time (UTC) | temp F | wind direction | speed knots | gust knots | rain 1hr in | rain 24hr in | rain mn in | humidity % | barometer mb |
| 20260504175138 | 61 | 258 | 0.9 | 4.3 | 0.00 | 0.00 | 0.00 | 63 | 1009.0 |
| 20260504174636 | 62 | 260 | 0.9 | 3.5 | 0.00 | 0.00 | 0.00 | 61 | 1009.1 |
| 20260504174137 | 62 | 247 | 0.9 | 7.0 | 0.00 | 0.00 | 0.00 | 60 | 1009.2 |
| 20260504173636 | 62 | 248 | 0.9 | 7.0 | 0.00 | 0.00 | 0.00 | 60 | 1009.2 |
| 20260504173136 | 61 | 237 | 0.9 | 3.5 | 0.00 | 0.00 | 0.00 | 61 | 1009.2 |
| 20260504172636 | 61 | 263 | 0.9 | 3.5 | 0.00 | 0.00 | 0.00 | 62 | 1009.3 |
| 20260504172136 | 61 | 258 | 0.9 | 6.1 | 0.00 | 0.00 | 0.00 | 63 | 1009.4 |
| 20260504171635 | 61 | 287 | 0.9 | 7.0 | 0.00 | 0.00 | 0.00 | 61 | 1009.3 |
| 20260504171136 | 60 | 239 | 0.9 | 7.0 | 0.00 | 0.00 | 0.00 | 62 | 1009.5 |
| 20260504170636 | 61 | 264 | 0.9 | 5.2 | 0.00 | 0.00 | 0.00 | 60 | 1009.4 |
| 20260504170135 | 61 | 247 | 0.9 | 5.2 | 0.00 | 0.00 | 0.00 | 60 | 1009.6 |
| 20260504160133 | 60 | 260 | 0.9 | 5.2 | 0.00 | 0.00 | 0.00 | 61 | 1010.3 |
| 20260504151131 | 59 | 333 | 0.9 | 7.0 | 0.00 | 0.00 | 0.00 | 63 | 1011.1 |
| 20260504150630 | 59 | 249 | 0.0 | 2.6 | 0.00 | 0.00 | 0.00 | 63 | 1011.1 |
| 20260504150131 | 59 | 239 | 0.0 | 3.5 | 0.00 | 0.00 | 0.00 | 64 | 1011.2 |
| 20260504141128 | 58 | 270 | 0.9 | 6.1 | 0.00 | 0.00 | 0.00 | 65 | 1011.5 |
| 20260504140627 | 58 | 275 | 0.9 | 7.8 | 0.00 | 0.00 | 0.00 | 65 | 1011.5 |
| 20260504140127 | 57 | 268 | 0.9 | 7.8 | 0.00 | 0.00 | 0.00 | 64 | 1011.5 |
| 20260504130625 | 56 | 250 | 0.0 | 3.5 | 0.00 | 0.00 | 0.00 | 65 | 1012.0 |
| 20260504130125 | 56 | 281 | 0.9 | 3.5 | 0.00 | 0.00 | 0.00 | 66 | 1012.1 |
| 20260504120124 | 55 | 288 | 0.9 | 6.1 | 0.00 | 0.00 | 0.00 | 59 | 1012.2 |
| 20260504110622 | 53 | 296 | 0.9 | 5.2 | 0.00 | 0.00 | 0.00 | 65 | 1012.1 |
| 20260504110121 | 53 | 295 | 0.9 | 5.2 | 0.00 | 0.00 | 0.00 | 65 | 1012.1 |
| 20260504100118 | 51 | 320 | 0.0 | 1.7 | 0.00 | 0.00 | 0.00 | 61 | 1011.7 |
| 20260504081613 | 52 | 15 | 0.0 | 1.7 | 0.00 | 0.00 | 0.00 | 55 | 1011.2 |
| 20260504081114 | 52 | 9 | 0.0 | 0.9 | 0.00 | 0.00 | 0.00 | 55 | 1011.2 |
| 20260504080613 | 51 | 359 | 0.0 | 0.9 | 0.00 | 0.00 | 0.00 | 55 | 1011.2 |
| 20260504080114 | 51 | 8 | 0.0 | 0.9 | 0.00 | 0.00 | 0.00 | 55 | 1011.2 |
| 20260504070111 | 51 | 16 | 0.9 | 1.7 | 0.00 | 0.00 | 0.00 | 57 | 1010.8 |
| 20260504050606 | 46 | 32 | 0.0 | 0.9 | 0.00 | 0.00 | 0.00 | 73 | 1010.6 |
| 20260504050107 | 46 | 26 | 0.0 | 0.9 | 0.00 | 0.00 | 0.00 | 73 | 1010.6 |
| 20260504045605 | 46 | 25 | 0.0 | 0.9 | 0.00 | 0.00 | 0.00 | 72 | 1010.7 |
| 20260504044102 | 47 | 25 | 0.0 | 0.9 | 0.00 | 0.00 | 0.00 | 71 | 1010.6 |
| 20260504043601 | 47 | 25 | 0.0 | 0.9 | 0.00 | 0.00 | 0.00 | 71 | 1010.5 |
| 20260504042603 | 47 | 24 | 0.0 | 0.0 | 0.00 | 0.00 | 0.00 | 72 | 1010.5 |
| 20260504042101 | 47 | 25 | 0.0 | 0.0 | 0.00 | 0.00 | 0.00 | 71 | 1010.5 |
| 20260504041602 | 48 | 25 | 0.0 | 0.0 | 0.00 | 0.00 | 0.00 | 70 | 1010.4 |
| 20260504041101 | 48 | 25 | 0.0 | 0.0 | 0.00 | 0.00 | 0.00 | 71 | 1010.5 |
| 20260504040602 | 48 | 25 | 0.0 | 0.9 | 0.00 | 0.00 | 0.00 | 71 | 1010.5 |
| 20260504033600 | 47 | 32 | 0.0 | 0.9 | 0.00 | 0.00 | 0.00 | 66 | 1010.4 |
| 20260504032557 | 48 | 32 | 0.0 | 0.9 | 0.00 | 0.00 | 0.00 | 67 | 1010.3 |
| 20260504032057 | 48 | 33 | 0.0 | 0.9 | 0.00 | 0.00 | 0.00 | 67 | 1010.3 |
| 20260504031557 | 48 | 32 | 0.0 | 0.9 | 0.00 | 0.00 | 0.00 | 67 | 1010.3 |
| 20260504030557 | 49 | 32 | 0.0 | 0.9 | 0.00 | 0.00 | 0.00 | 63 | 1010.3 |
| 20260504025557 | 49 | 29 | 0.0 | 0.9 | 0.00 | 0.00 | 0.00 | 62 | 1010.3 |
| 20260504025057 | 50 | 21 | 0.0 | 0.0 | 0.00 | 0.00 | 0.00 | 59 | 1010.4 |
| 20260504024557 | 50 | 21 | 0.0 | 0.0 | 0.00 | 0.00 | 0.00 | 56 | 1010.4 |
| 20260504024056 | 51 | 21 | 0.0 | 0.0 | 0.00 | 0.00 | 0.00 | 55 | 1010.4 |
| 20260504023556 | 52 | 21 | 0.0 | 0.9 | 0.00 | 0.00 | 0.00 | 55 | 1010.4 |
| 20260504022055 | 51 | 21 | 0.0 | 0.9 | 0.00 | 0.00 | 0.00 | 48 | 1010.4 |
| 20260504021055 | 51 | 23 | 0.0 | 0.0 | 0.00 | 0.00 | 0.00 | 49 | 1010.3 |
| 20260504020055 | 51 | 23 | 0.0 | 0.0 | 0.00 | 0.00 | 0.00 | 50 | 1010.3 |
| 20260504015555 | 51 | 23 | 0.0 | 0.0 | 0.00 | 0.00 | 0.00 | 50 | 1010.2 |
| 20260504015053 | 51 | 23 | 0.0 | 0.0 | 0.00 | 0.00 | 0.00 | 51 | 1010.2 |
| 20260504014553 | 52 | 23 | 0.0 | 0.0 | 0.00 | 0.00 | 0.00 | 50 | 1010.2 |
| 20260504014053 | 52 | 23 | 0.0 | 0.0 | 0.00 | 0.00 | 0.00 | 50 | 1010.2 |
| 20260504013553 | 52 | 23 | 0.0 | 0.0 | 0.00 | 0.00 | 0.00 | 50 | 1010.2 |
| 20260504012553 | 53 | 23 | 0.0 | 0.0 | 0.00 | 0.00 | 0.00 | 50 | 1010.1 |
| 20260504012054 | 53 | 23 | 0.0 | 0.0 | 0.00 | 0.00 | 0.00 | 49 | 1010.0 |
| 20260504011553 | 53 | 23 | 0.0 | 0.0 | 0.00 | 0.00 | 0.00 | 47 | 1010.0 |
| 20260504011054 | 54 | 23 | 0.0 | 0.0 | 0.00 | 0.00 | 0.00 | 45 | 1010.0 |
| 20260504010554 | 54 | 23 | 0.0 | 0.0 | 0.00 | 0.00 | 0.00 | 46 | 1009.8 |
| 20260504010051 | 54 | 23 | 0.0 | 0.0 | 0.00 | 0.00 | 0.00 | 45 | 1009.8 |
| 20260504005552 | 55 | 23 | 0.0 | 0.0 | 0.00 | 0.00 | 0.00 | 45 | 1009.7 |
| 20260504004553 | 55 | 23 | 0.0 | 0.0 | 0.00 | 0.00 | 0.00 | 42 | 1009.6 |
| 20260504004051 | 56 | 23 | 0.0 | 0.0 | 0.00 | 0.00 | 0.00 | 44 | 1009.6 |
| 20260504003552 | 56 | 23 | 0.0 | 0.0 | 0.00 | 0.00 | 0.00 | 40 | 1009.5 |
| 20260504003051 | 56 | 23 | 0.0 | 0.9 | 0.00 | 0.00 | 0.00 | 38 | 1009.4 |
| 20260504002551 | 56 | 23 | 0.0 | 0.9 | 0.00 | 0.00 | 0.00 | 38 | 1009.3 |
| 20260504002051 | 57 | 23 | 0.0 | 0.9 | 0.00 | 0.00 | 0.00 | 37 | 1009.2 |
| 20260504001551 | 57 | 23 | 0.0 | 0.9 | 0.00 | 0.00 | 0.00 | 37 | 1009.2 |
| 20260504000550 | 57 | 30 | 0.0 | 0.9 | 0.00 | 0.00 | 0.00 | 36 | 1009.0 |
| 20260503235049 | 58 | 19 | 0.0 | 1.7 | 0.00 | 0.00 | 0.00 | 35 | 1008.8 |
| 20260503234549 | 58 | 32 | 0.0 | 1.7 | 0.00 | 0.00 | 0.00 | 34 | 1008.8 |
| 20260503234049 | 58 | 4 | 0.0 | 1.7 | 0.00 | 0.00 | 0.00 | 34 | 1008.7 |
| 20260503233550 | 58 | 8 | 0.0 | 1.7 | 0.00 | 0.00 | 0.00 | 34 | 1008.6 |
| 20260503233048 | 59 | 4 | 0.0 | 2.6 | 0.00 | 0.00 | 0.00 | 32 | 1008.6 |
| 20260503231547 | 59 | 23 | 0.0 | 1.7 | 0.00 | 0.00 | 0.00 | 32 | 1008.5 |
| 20260503231048 | 59 | 10 | 0.0 | 1.7 | 0.00 | 0.00 | 0.00 | 31 | 1008.4 |
| 20260503230047 | 59 | 40 | 0.0 | 4.3 | 0.00 | 0.00 | 0.00 | 31 | 1008.2 |
| 20260503224547 | 59 | 20 | 0.0 | 2.6 | 0.00 | 0.00 | 0.00 | 31 | 1008.2 |
| 20260503223547 | 59 | 11 | 0.9 | 5.2 | 0.00 | 0.00 | 0.00 | 31 | 1008.2 |
| 20260503222546 | 59 | 23 | 0.9 | 6.1 | 0.00 | 0.00 | 0.00 | 30 | 1008.2 |
| 20260503222045 | 60 | 4 | 0.0 | 2.6 | 0.00 | 0.00 | 0.00 | 31 | 1008.1 |
| 20260503221544 | 59 | 4 | 0.9 | 7.0 | 0.00 | 0.00 | 0.00 | 31 | 1008.1 |
| 20260503221046 | 59 | 25 | 0.9 | 7.0 | 0.00 | 0.00 | 0.00 | 31 | 1008.1 |
| 20260503220546 | 59 | 38 | 0.9 | 6.1 | 0.00 | 0.00 | 0.00 | 29 | 1008.1 |
| 20260503220046 | 59 | 324 | 0.9 | 13.0 | 0.00 | 0.00 | 0.00 | 30 | 1008.2 |
| 20260503215545 | 59 | 354 | 1.7 | 13.0 | 0.00 | 0.00 | 0.00 | 30 | 1008.1 |
| 20260503215044 | 59 | 10 | 0.9 | 7.8 | 0.00 | 0.00 | 0.00 | 30 | 1008.1 |
| 20260503214546 | 59 | 354 | 0.9 | 7.0 | 0.00 | 0.00 | 0.00 | 32 | 1008.1 |
| 20260503214043 | 59 | 24 | 0.9 | 9.6 | 0.00 | 0.00 | 0.00 | 32 | 1008.1 |
| 20260503213544 | 59 | 359 | 1.7 | 9.6 | 0.00 | 0.00 | 0.00 | 31 | 1008.0 |
| 20260503213042 | 59 | 10 | 1.7 | 11.3 | 0.00 | 0.00 | 0.00 | 32 | 1008.0 |
| 20260503212543 | 59 | 8 | 2.6 | 14.8 | 0.00 | 0.00 | 0.00 | 31 | 1008.0 |
| 20260503212042 | 59 | 287 | 2.6 | 14.8 | 0.00 | 0.00 | 0.00 | 31 | 1007.9 |
| 20260503211044 | 59 | 8 | 1.7 | 7.8 | 0.00 | 0.00 | 0.00 | 31 | 1007.8 |
| 20260503210544 | 59 | 25 | 1.7 | 13.9 | 0.00 | 0.00 | 0.00 | 32 | 1007.9 |
| 20260503210042 | 59 | 13 | 1.7 | 13.9 | 0.00 | 0.00 | 0.00 | 32 | 1008.0 |
| 20260503205543 | 59 | 14 | 1.7 | 9.6 | 0.00 | 0.00 | 0.00 | 31 | 1007.9 |
| 20260503205043 | 59 | 33 | 1.7 | 9.6 | 0.00 | 0.00 | 0.00 | 32 | 1007.9 |
| 20260503204543 | 59 | 4 | 0.9 | 9.6 | 0.00 | 0.00 | 0.00 | 33 | 1007.8 |
| 20260503204043 | 59 | 55 | 0.0 | 4.3 | 0.00 | 0.00 | 0.00 | 33 | 1007.9 |
| 20260503203044 | 59 | 61 | 0.9 | 7.0 | 0.00 | 0.00 | 0.00 | 33 | 1008.0 |
| 20260503202543 | 59 | 27 | 1.7 | 10.4 | 0.00 | 0.00 | 0.00 | 34 | 1008.0 |
| 20260503202044 | 59 | 20 | 2.6 | 11.3 | 0.00 | 0.00 | 0.00 | 33 | 1007.9 |
| 20260503201544 | 59 | 12 | 1.7 | 11.3 | 0.00 | 0.00 | 0.00 | 34 | 1007.8 |
| 20260503201042 | 59 | 37 | 1.7 | 10.4 | 0.00 | 0.00 | 0.00 | 34 | 1008.0 |
| 20260503200542 | 59 | 12 | 0.9 | 10.4 | 0.00 | 0.00 | 0.00 | 34 | 1008.1 |
| 20260503200042 | 59 | 8 | 0.9 | 4.3 | 0.00 | 0.00 | 0.00 | 35 | 1008.0 |
| 20260503195543 | 58 | 10 | 1.7 | 9.6 | 0.00 | 0.00 | 0.00 | 35 | 1008.1 |
| 20260503194543 | 58 | 60 | 4.3 | 20.0 | 0.00 | 0.00 | 0.00 | 37 | 1008.2 |
| 20260503193542 | 57 | 50 | 1.7 | 12.2 | 0.00 | 0.00 | 0.00 | 36 | 1008.2 |
| 20260503193041 | 57 | 49 | 2.6 | 12.2 | 0.00 | 0.00 | 0.00 | 37 | 1008.3 |
| 20260503192040 | 57 | 72 | 1.7 | 13.0 | 0.00 | 0.00 | 0.00 | 38 | 1008.4 |
| 20260503191541 | 57 | 59 | 0.9 | 9.6 | 0.00 | 0.00 | 0.00 | 38 | 1008.5 |
| 20260503190540 | 55 | 65 | 2.6 | 11.3 | 0.00 | 0.00 | 0.00 | 39 | 1008.7 |
| 20260503190041 | 56 | 25 | 1.7 | 11.3 | 0.00 | 0.00 | 0.00 | 39 | 1008.8 |
| 20260503185540 | 55 | 26 | 0.9 | 8.7 | 0.00 | 0.00 | 0.00 | 40 | 1008.7 |
| 20260503185041 | 56 | 16 | 1.7 | 13.9 | 0.00 | 0.00 | 0.00 | 39 | 1008.8 |
| 20260503184540 | 55 | 43 | 2.6 | 13.9 | 0.00 | 0.00 | 0.00 | 40 | 1008.8 |
| 20260503184040 | 56 | 350 | 0.9 | 7.8 | 0.00 | 0.00 | 0.00 | 40 | 1008.8 |
| 20260503183542 | 55 | 43 | 1.7 | 8.7 | 0.00 | 0.00 | 0.00 | 42 | 1008.9 |
| 20260503183040 | 55 | 19 | 2.6 | 11.3 | 0.00 | 0.00 | 0.00 | 40 | 1009.0 |
| 20260503182040 | 54 | 18 | 1.7 | 10.4 | 0.00 | 0.00 | 0.00 | 41 | 1008.9 |
| 20260503181542 | 54 | 44 | 1.7 | 13.9 | 0.00 | 0.00 | 0.00 | 41 | 1008.9 |
| 20260503181041 | 55 | 359 | 1.7 | 13.9 | 0.00 | 0.00 | 0.00 | 41 | 1009.0 |
| 20260503180540 | 55 | 54 | 1.7 | 10.4 | 0.00 | 0.00 | 0.00 | 40 | 1008.8 |
| 20260503180041 | 55 | 8 | 1.7 | 9.6 | 0.00 | 0.00 | 0.00 | 40 | 1008.9 |
| 20260503175538 | 55 | 58 | 2.6 | 12.2 | 0.00 | 0.00 | 0.00 | 41 | 1008.9 |